Wetbulb
73.89 76.55 79.30 79.41 78.66 78.28 77.97 77.54 76.97 76.99 77.30 77.53 77.89 77.95 78.10 77.81 77.68 77.10 77.62 77.50 77.03 76.36 76.28 75.95 76.22 76.41 76.62 76.26 76.32 75.75 75.40 75.49 75.80 75.36 75.74 75.54 75.56 75.59 75.81 73.66 74.30 72.88 73.24
75.02 76.86 79.29 79.37 79.40 78.34 78.03 77.47 76.95 76.91 77.34 77.40 77.69 76.80 77.34 77.24 76.88 77.22 78.13 76.97 76.74 76.30 76.65 76.42 76.22 76.62 76.75 76.26 75.53 75.53 75.58 76.01 76.18 75.89 76.12 75.71 75.76 75.34 75.48 74.02 75.03 73.77 74.06
75.39 76.64 77.91 79.13 79.54 78.61 78.20 77.92 77.06 76.93 77.31 77.50 77.61 77.26 76.44 76.28 77.02 76.69 76.67 76.86 76.80 76.82 76.80 76.99 76.37 76.57 76.51 75.91 75.31 76.26 75.88 76.40 76.56 75.32 75.73 72.68 72.82 76.12 75.35 73.99 75.09 75.43 73.78
75.74 76.01 77.27 79.14 79.17 79.10 78.78 78.32 77.82 77.55 77.44 77.44 77.38 77.14 76.63 75.91 76.26 74.13 74.93 75.79 76.50 76.68 76.64 76.50 76.47 76.60 75.99 75.41 74.87 76.18 76.16 75.98 76.43 74.85 72.18 72.98 73.36 75.06 73.91 74.23 74.06 73.65 74.40
74.74 75.89 76.87 79.41 79.35 78.54 78.70 78.82 78.53 78.26 77.69 77.48 77.23 76.94 76.86 76.56 76.60 75.31 74.52 74.92 74.99 75.85 76.33 76.74 76.36 75.97 76.04 75.68 75.46 75.48 75.80 75.89 75.84 74.81 72.35 70.68 71.68 74.92 74.58 74.93 75.11 73.53 72.58
74.61 76.01 78.50 79.09 78.33 78.33 78.69 78.84 78.58 78.03 77.88 77.81 77.47 76.84 76.65 76.44 76.50 76.48 76.33 75.96 75.93 75.12 75.61 76.14 75.87 75.86 75.56 76.16 75.36 75.53 75.43 75.35 75.24 72.83 72.16 72.44 72.08 75.32 74.05 74.61 74.73 73.89 74.83
74.69 76.49 77.42 79.10 78.89 78.57 78.57 78.65 78.76 78.11 77.92 77.46 76.83 76.68 76.74 76.44 76.30 76.33 76.20 75.98 76.02 76.09 75.17 75.59 75.95 75.46 75.75 75.96 75.74 75.40 74.93 75.13 73.52 72.75 71.53 72.25 72.57 76.58 74.81 74.71 74.03 74.30 73.71
75.41 76.47 77.15 78.82 78.72 78.34 77.88 77.80 78.08 77.59 77.36 77.10 77.08 76.76 76.84 76.67 76.27 76.44 76.51 76.35 76.08 76.15 76.18 75.68 75.78 76.22 76.02 75.83 75.44 75.48 74.64 74.34 74.36 73.36 72.20 72.49 74.13 76.46 75.45 75.01 74.95 75.13 74.48
75.79 75.84 76.24 76.42 77.02 78.16 77.91 77.65 77.77 77.69 77.66 77.60 77.34 76.98 76.87 76.82 76.72 76.77 76.68 76.79 76.44 76.42 76.39 76.50 75.80 75.69 76.26 76.11 75.49 75.29 75.20 74.83 72.78 72.01 72.16 72.10 75.04 75.59 75.18 74.40 74.74 74.17 73.35
74.73 75.38 75.12 74.94 75.03 74.88 75.57 77.65 77.47 77.51 77.36 77.28 77.18 77.01 76.68 76.60 76.36 76.46 76.83 77.41 76.23 75.93 75.93 76.05 76.31 75.97 75.67 76.39 76.24 75.53 75.42 75.02 73.17 72.55 70.99 71.81 75.23 75.43 74.91 74.28 74.18 75.04 74.17
73.74 74.08 74.73 74.40 74.24 74.33 74.82 76.16 77.69 77.52 77.37 77.13 76.91 77.87 76.55 73.73 73.64 74.96 76.00 76.37 76.24 75.89 76.00 76.16 76.56 76.47 75.98 75.86 76.58 76.40 76.07 72.78 72.55 71.07 72.12 74.03 75.68 76.08 75.70 75.60 74.33 74.38 75.16
66.47 68.74 69.10 69.17 72.48 74.19 75.91 75.23 75.39 75.29 74.52 74.49 74.39 73.73 73.85 72.46 71.54 71.29 74.11 76.61 76.20 76.06 75.59 75.55 75.81 76.23 75.74 73.63 73.46 76.03 73.22 72.81 72.10 71.05 71.79 75.20 75.59 76.01 76.18 76.11 75.64 74.66 74.44
67.77 68.08 67.81 67.65 69.86 72.62 74.50 74.86 75.05 73.89 73.16 73.59 73.77 72.98 71.57 71.10 69.19 66.35 67.74 71.75 72.47 75.10 73.02 74.56 74.17 73.29 73.15 72.61 72.73 73.12 72.97 72.45 71.36 72.32 73.84 75.52 75.22 75.49 75.54 75.42 75.62 75.57 74.25
67.23 66.02 67.15 67.71 69.65 67.82 71.47 72.81 71.11 71.75 70.57 69.98 70.07 72.30 70.93 67.98 66.56 65.61 66.39 70.58 71.46 72.17 71.47 70.40 68.71 68.94 67.58 69.09 71.17 71.95 72.67 72.12 71.07 72.67 72.92 74.36 75.58 75.32 75.57 75.45 75.46 75.67 75.51
65.96 64.95 66.44 67.97 67.21 67.80 69.06 69.85 68.61 69.67 70.12 70.02 67.82 71.53 70.68 68.99 68.90 68.16 69.28 71.22 70.54 71.06 70.41 69.28 68.51 67.07 66.86 67.60 71.06 71.82 72.25 72.53 71.31 71.86 71.40 74.96 75.42 75.51 76.32 76.70 76.08 75.83 75.84
67.11 64.70 66.82 66.21 67.77 69.58 71.63 69.31 68.76 69.13 69.39 69.92 67.93 68.01 72.70 69.28 70.39 69.60 69.10 68.86 69.11 70.61 69.78 69.66 69.51 69.35 68.92 69.31 70.12 70.38 71.05 72.11 71.33 71.79 72.10 72.41 76.14 76.25 76.36 76.48 76.49 76.34 76.23
66.22 66.63 66.61 67.13 70.39 69.95 71.18 71.27 70.53 70.26 69.10 68.81 68.49 70.64 73.02 71.66 70.34 69.06 67.80 67.61 68.11 70.03 68.60 67.57 66.97 68.51 69.80 70.30 70.36 70.68 71.82 72.26 72.13 72.22 72.67 72.52 74.19 76.60 76.23 75.97 75.71 76.01 76.44
66.28 64.72 64.55 66.75 68.70 71.31 71.54 71.66 70.96 71.39 69.85 69.65 69.73 70.50 71.69 71.27 70.63 69.39 68.61 68.87 70.06 68.90 67.80 65.98 65.85 65.98 67.37 69.01 69.73 69.89 70.71 71.25 71.24 70.61 71.97 72.44 72.84 73.60 75.40 75.92 75.47 75.85 76.65
64.67 63.88 63.44 64.13 70.31 71.49 71.56 70.39 69.53 69.22 69.15 70.39 70.93 70.20 70.13 71.42 71.72 69.66 68.70 68.31 71.05 70.03 68.63 67.23 68.20 67.00 66.13 67.97 69.16 69.63 69.89 70.10 70.85 71.92 71.68 71.88 72.19 72.48 72.75 74.80 75.49 75.49 75.61
65.14 65.16 64.29 65.00 69.29 69.47 69.92 69.06 68.45 67.93 68.24 69.15 70.01 69.91 69.42 69.47 70.19 69.58 69.10 69.76 70.88 70.59 69.65 68.81 68.25 67.93 68.16 68.65 70.88 71.26 69.70 69.98 69.92 69.70 70.59 71.56 70.39 72.45 72.03 72.70 72.84 73.67 75.29
65.64 65.69 65.00 68.07 67.26 68.22 69.90 65.61 65.47 64.94 66.21 67.43 68.34 69.42 69.39 70.55 70.52 69.28 69.22 69.89 70.02 69.89 70.04 70.53 69.42 68.61 68.16 68.79 67.23 66.52 67.62 68.83 69.06 69.88 70.36 70.27 70.04 71.06 71.03 70.78 70.96 71.64 71.51
66.57 68.06 67.44 68.27 65.85 66.34 70.66 69.22 66.65 65.36 66.49 66.52 68.45 68.33 69.17 69.64 70.61 71.05 69.55 70.01 70.42 70.20 69.83 69.53 69.34 67.89 68.13 68.45 65.75 64.21 62.08 63.63 65.85 68.47 68.65 69.37 68.94 70.53 70.95 70.97 70.84 70.79 69.33
67.06 68.13 65.09 66.05 66.96 69.18 69.88 67.55 66.73 65.91 65.52 65.17 65.84 68.83 70.02 70.71 70.88 70.45 70.25 69.77 70.14 69.77 68.92 68.86 68.73 68.02 66.29 66.94 67.80 64.79 61.05 60.17 62.28 65.83 67.71 68.00 68.90 69.15 70.19 70.91 70.05 69.56 68.81
68.20 68.96 67.70 69.70 71.39 70.87 68.57 67.28 65.58 64.08 62.48 63.85 67.14 68.38 70.04 70.89 70.46 70.61 70.35 70.08 69.82 69.84 69.66 69.41 70.13 67.95 67.32 66.13 67.05 68.36 66.72 64.87 60.79 59.38 66.37 67.34 68.45 68.02 68.16 67.55 69.15 68.31 67.91
69.85 69.29 70.36 66.86 71.61 72.24 68.14 67.76 67.89 66.36 67.59 68.74 68.63 67.59 67.38 68.93 70.59 70.65 69.77 69.98 69.86 69.49 69.35 69.30 68.67 68.07 68.27 67.03 66.33 65.97 65.41 65.13 64.85 61.95 60.06 64.01 66.23 67.68 68.43 69.53 69.33 68.97 69.17
70.08 71.85 71.80 70.98 71.08 70.77 69.79 69.38 68.92 68.69 68.04 67.21 66.38 64.99 67.14 67.26 68.47 69.28 69.73 68.63 68.54 68.94 68.74 68.85 68.61 68.31 67.80 67.32 66.96 66.93 65.92 63.60 62.87 62.83 62.46 63.20 63.36 64.47 65.71 67.16 68.40 68.09 68.29
MSLP
1013.19 1013.05 1013.16 1013.31 1013.48 1013.63 1013.65 1013.84 1014.03 1014.14 1014.39 1014.65 1015.03 1015.23 1015.37 1015.44 1015.55 1015.85 1015.97 1016.06 1016.31 1016.44 1016.35 1016.53 1016.71 1016.75 1016.71 1016.98 1017.09 1017.18 1017.26 1017.35 1017.54 1017.78 1017.83 1018.02 1018.10 1018.22 1018.31 1018.57 1018.74 1018.87 1019.03
1012.63 1013.04 1013.25 1013.36 1013.65 1013.79 1013.93 1014.09 1014.29 1014.46 1014.59 1014.77 1015.10 1015.43 1015.56 1015.60 1015.63 1015.87 1015.86 1016.23 1016.52 1016.60 1016.55 1016.70 1016.88 1016.95 1016.96 1017.16 1017.31 1017.41 1017.56 1017.62 1017.73 1017.97 1017.99 1018.13 1018.13 1018.27 1018.44 1018.73 1018.90 1019.05 1019.13
1012.92 1013.14 1013.35 1013.45 1013.75 1013.89 1014.12 1014.30 1014.41 1014.57 1014.75 1014.88 1015.20 1015.49 1015.71 1015.78 1015.89 1016.14 1016.15 1016.35 1016.56 1016.72 1016.76 1016.82 1016.99 1017.11 1017.19 1017.37 1017.48 1017.59 1017.71 1017.78 1017.92 1018.11 1018.24 1018.48 1018.45 1018.37 1018.67 1018.89 1019.03 1019.21 1019.39
1012.91 1013.23 1013.41 1013.61 1013.89 1014.13 1014.32 1014.40 1014.62 1014.72 1014.89 1015.08 1015.22 1015.45 1015.72 1015.95 1016.11 1016.33 1016.47 1016.71 1016.81 1016.76 1016.86 1016.98 1017.01 1017.19 1017.38 1017.56 1017.70 1017.81 1017.92 1017.99 1018.03 1018.24 1018.53 1018.60 1018.66 1018.79 1018.87 1018.99 1019.22 1019.49 1019.60
1013.29 1013.54 1013.83 1013.98 1014.05 1014.22 1014.27 1014.40 1014.68 1014.68 1014.77 1015.07 1015.35 1015.55 1015.70 1016.00 1016.21 1016.40 1016.48 1016.79 1016.93 1016.89 1016.94 1017.00 1017.18 1017.37 1017.52 1017.68 1017.79 1017.96 1018.06 1018.16 1018.25 1018.34 1018.67 1018.79 1018.87 1018.94 1019.04 1019.19 1019.26 1019.49 1019.74
1013.54 1013.72 1013.93 1014.17 1014.23 1014.13 1014.39 1014.47 1014.61 1014.73 1014.87 1015.07 1015.36 1015.66 1015.73 1015.89 1016.08 1016.24 1016.45 1016.68 1016.91 1017.10 1017.18 1017.14 1017.28 1017.43 1017.57 1017.70 1017.86 1018.05 1018.24 1018.29 1018.35 1018.54 1018.73 1018.83 1019.01 1018.97 1019.05 1019.33 1019.41 1019.59 1019.76
1013.39 1013.52 1013.76 1013.93 1014.15 1014.47 1014.62 1014.65 1014.76 1014.79 1015.01 1015.25 1015.37 1015.68 1015.93 1015.89 1015.97 1016.29 1016.46 1016.62 1016.77 1017.02 1017.20 1017.31 1017.34 1017.48 1017.61 1017.78 1017.87 1018.06 1018.32 1018.41 1018.47 1018.50 1018.62 1019.01 1019.06 1019.11 1019.12 1019.28 1019.51 1019.69 1019.92
1013.13 1013.53 1013.68 1014.04 1014.21 1014.55 1014.63 1014.71 1014.82 1015.02 1015.18 1015.39 1015.62 1015.75 1016.00 1016.14 1016.15 1016.22 1016.40 1016.58 1016.59 1016.65 1016.89 1017.19 1017.35 1017.46 1017.58 1017.80 1018.00 1018.05 1018.21 1018.35 1018.51 1018.72 1018.83 1019.11 1019.11 1019.17 1019.28 1019.39 1019.60 1019.79 1019.99
1013.69 1013.83 1014.06 1013.99 1014.09 1014.39 1014.54 1014.64 1014.68 1014.93 1015.17 1015.33 1015.66 1015.85 1015.89 1016.19 1016.17 1016.26 1016.39 1016.51 1016.61 1016.64 1016.81 1016.93 1017.18 1017.47 1017.60 1017.71 1018.00 1018.09 1018.13 1018.26 1018.31 1018.69 1018.63 1019.05 1019.25 1019.19 1019.37 1019.51 1019.69 1019.91 1020.09
1014.38 1014.17 1014.31 1014.33 1014.13 1014.38 1014.39 1014.64 1014.76 1014.91 1015.05 1015.16 1015.25 1015.60 1015.84 1016.01 1016.17 1016.21 1016.28 1016.41 1016.57 1016.67 1016.79 1016.87 1016.92 1017.24 1017.53 1017.71 1017.89 1018.06 1018.09 1018.18 1018.40 1018.57 1018.80 1018.99 1019.12 1019.17 1019.35 1019.63 1019.74 1019.95 1020.09
1014.83 1015.00 1014.63 1014.46 1014.42 1014.45 1014.80 1014.46 1014.49 1014.66 1014.93 1015.05 1015.13 1015.25 1015.61 1015.90 1016.12 1016.14 1016.22 1016.27 1016.42 1016.59 1016.65 1016.75 1016.70 1016.83 1017.21 1017.52 1017.72 1017.89 1017.99 1018.31 1018.57 1018.73 1018.87 1018.82 1019.10 1019.22 1019.36 1019.55 1019.73 1019.94 1020.06
1016.21 1016.08 1016.43 1016.38 1016.05 1014.48 1014.19 1014.51 1014.43 1014.48 1014.63 1014.85 1015.15 1015.36 1015.56 1015.81 1016.05 1016.31 1016.33 1016.22 1016.36 1016.43 1016.51 1016.63 1016.71 1016.73 1016.94 1017.50 1017.77 1017.74 1018.02 1018.18 1018.52 1018.79 1018.81 1018.67 1018.80 1019.01 1019.26 1019.49 1019.59 1019.77 1019.85
1015.73 1016.22 1015.37 1016.15 1016.37 1015.47 1014.21 1014.25 1014.32 1014.36 1014.58 1014.73 1014.95 1015.28 1015.40 1015.73 1016.02 1016.45 1016.61 1016.47 1016.43 1016.49 1016.57 1016.65 1016.75 1016.89 1017.00 1017.42 1017.79 1017.79 1017.83 1018.11 1018.33 1018.42 1018.43 1018.53 1018.63 1018.87 1019.12 1019.58 1019.67 1019.61 1019.63
1013.22 1014.13 1014.03 1014.75 1015.49 1016.18 1015.43 1014.14 1014.33 1014.47 1014.47 1014.69 1014.78 1014.98 1015.30 1015.77 1016.05 1016.26 1016.50 1016.45 1016.48 1016.59 1016.69 1016.84 1017.03 1017.11 1017.17 1017.29 1017.49 1017.55 1017.62 1017.80 1018.05 1018.10 1018.14 1018.37 1018.72 1018.79 1018.87 1019.22 1019.51 1019.51 1019.49
1013.50 1013.56 1014.64 1014.07 1014.41 1014.49 1015.23 1014.53 1014.54 1014.55 1014.28 1014.34 1014.65 1014.74 1015.02 1015.58 1016.05 1016.06 1016.18 1016.24 1016.34 1016.59 1016.59 1016.75 1017.01 1017.22 1017.19 1017.13 1017.27 1017.29 1017.32 1017.37 1017.59 1017.68 1017.95 1017.75 1018.11 1018.21 1018.37 1018.63 1018.95 1019.05 1019.16
1013.41 1013.85 1015.11 1014.82 1014.69 1014.56 1014.97 1014.56 1014.25 1014.39 1014.04 1014.25 1014.58 1014.64 1014.83 1015.28 1015.57 1015.80 1016.05 1016.20 1016.23 1016.31 1016.24 1016.41 1016.65 1016.82 1017.00 1016.99 1016.90 1016.95 1016.97 1017.02 1017.29 1017.34 1017.23 1017.42 1017.51 1017.74 1017.99 1018.28 1018.43 1018.69 1018.77
1012.85 1013.61 1014.15 1014.72 1014.13 1014.03 1014.15 1014.25 1013.91 1014.19 1014.31 1014.25 1014.47 1014.53 1014.76 1014.84 1015.43 1015.67 1015.92 1016.21 1016.13 1016.04 1016.09 1016.30 1016.44 1016.48 1016.69 1016.67 1016.79 1016.64 1016.68 1016.63 1016.65 1017.10 1017.03 1016.96 1016.98 1017.28 1017.56 1017.95 1018.08 1018.23 1018.33
1012.87 1013.51 1013.48 1013.73 1013.76 1013.89 1013.79 1013.79 1013.99 1014.03 1014.17 1014.13 1014.52 1014.49 1014.46 1014.77 1014.97 1015.45 1015.79 1016.05 1015.73 1015.89 1016.07 1016.29 1016.40 1016.37 1016.33 1016.39 1016.35 1016.33 1016.43 1016.40 1016.41 1016.89 1016.90 1016.99 1017.07 1017.10 1017.13 1017.37 1017.57 1017.67 1017.76
1012.75 1013.21 1013.36 1013.42 1013.64 1013.54 1013.82 1014.00 1014.15 1014.25 1014.35 1014.31 1014.21 1014.34 1014.45 1014.63 1014.88 1015.36 1015.53 1015.54 1015.38 1015.49 1015.82 1015.97 1016.05 1016.24 1015.97 1015.93 1015.92 1016.00 1016.09 1016.25 1016.32 1016.15 1016.36 1016.36 1016.59 1016.71 1016.86 1016.81 1016.99 1017.06 1017.22
1013.11 1012.78 1013.08 1013.49 1013.56 1013.62 1013.89 1014.29 1014.47 1014.73 1014.62 1014.53 1014.31 1014.43 1014.68 1014.61 1014.84 1015.12 1015.29 1015.32 1015.21 1015.38 1015.56 1015.91 1016.01 1015.87 1015.87 1015.64 1015.77 1015.89 1015.88 1015.83 1015.83 1015.97 1015.90 1016.15 1016.46 1016.35 1016.45 1016.42 1016.43 1016.53 1016.63
1013.15 1013.43 1013.22 1013.35 1013.46 1013.62 1013.92 1014.56 1014.64 1014.99 1015.10 1015.10 1014.77 1014.60 1014.86 1014.83 1014.62 1014.91 1015.00 1015.03 1014.85 1015.07 1015.13 1015.33 1015.44 1015.52 1015.47 1015.44 1016.05 1015.98 1015.83 1015.65 1015.68 1015.68 1015.51 1015.58 1016.06 1016.27 1016.46 1016.46 1016.33 1016.31 1016.73
1013.03 1013.14 1013.22 1013.48 1013.65 1013.84 1014.09 1014.45 1014.47 1014.63 1014.80 1014.93 1014.78 1014.94 1014.82 1014.74 1014.53 1014.77 1014.83 1014.76 1014.63 1015.00 1015.14 1015.07 1015.09 1015.28 1015.37 1015.49 1015.99 1016.49 1016.43 1016.05 1015.77 1015.98 1016.06 1016.16 1016.33 1016.21 1016.30 1016.39 1016.29 1016.38 1016.81
1012.99 1013.26 1013.39 1013.29 1013.53 1013.91 1014.23 1014.20 1014.70 1014.72 1014.76 1015.02 1015.16 1014.77 1014.68 1014.52 1014.62 1014.64 1014.70 1014.68 1014.69 1014.90 1014.92 1014.78 1014.82 1015.04 1015.31 1015.49 1015.66 1016.13 1016.55 1016.63 1016.55 1016.73 1016.69 1016.61 1016.45 1016.28 1016.31 1016.30 1016.60 1016.75 1016.93
1013.07 1013.23 1013.55 1013.37 1013.60 1013.81 1014.01 1014.22 1014.61 1014.76 1015.03 1015.19 1015.19 1014.99 1014.80 1014.40 1014.70 1014.69 1014.65 1014.61 1014.69 1014.64 1014.68 1014.77 1014.82 1014.97 1015.19 1015.57 1015.65 1015.72 1015.83 1016.18 1016.75 1017.43 1017.38 1017.28 1017.07 1016.76 1016.75 1016.70 1016.87 1017.15 1017.38
1013.33 1013.55 1013.82 1013.96 1013.84 1013.86 1014.20 1014.35 1014.49 1014.80 1014.97 1015.03 1015.13 1015.14 1015.09 1015.01 1014.82 1014.50 1014.51 1014.44 1014.64 1014.67 1014.65 1014.57 1014.73 1014.88 1015.03 1015.38 1015.63 1015.68 1015.83 1016.11 1016.47 1016.99 1017.55 1017.76 1017.66 1017.45 1017.26 1016.99 1016.80 1017.40 1017.56
1013.26 1013.75 1014.18 1014.36 1013.97 1013.94 1014.21 1014.45 1014.27 1014.39 1014.87 1015.25 1015.30 1015.42 1015.39 1015.27 1015.44 1015.05 1014.53 1014.55 1014.48 1014.56 1014.62 1014.61 1014.75 1014.98 1015.08 1015.20 1015.24 1015.38 1015.59 1015.92 1016.39 1016.71 1017.31 1017.78 1017.99 1018.19 1017.92 1017.66 1017.70 1017.97 1018.14
Wind_Speed
6 6 13 14 15 14 13 14 14 14 14 14 15 15 16 16 17 16 15 14 14 12 12 11 10 12 13 12 13 14 15 16 16 17 18 16 15 14 16 15 14 10 15
11 8 13 14 14 14 14 13 13 14 15 14 14 15 15 14 15 15 15 14 11 10 10 12 11 12 13 11 12 14 15 14 15 16 17 14 14 14 14 14 14 11 14
10 9 10 13 13 14 13 13 13 14 14 14 14 14 13 13 15 12 13 12 10 10 10 11 10 10 11 10 11 12 14 13 13 14 14 5 6 17 15 14 14 14 13
11 7 8 13 13 12 13 12 12 13 14 13 13 14 12 12 12 11 12 10 9 10 10 9 10 10 10 9 9 10 11 13 14 15 5 5 9 15 14 14 14 13 11
9 7 8 13 13 13 13 12 12 12 13 14 14 13 13 12 11 10 10 8 8 7 9 9 8 8 8 8 8 9 9 10 11 7 6 4 5 12 14 13 13 13 12
11 9 13 14 14 14 13 13 13 12 12 13 14 14 11 10 10 9 9 8 8 7 7 8 8 7 7 7 6 6 7 7 7 3 4 7 5 13 15 14 12 13 11
13 11 12 15 14 12 11 12 13 12 12 11 13 14 13 11 8 8 8 7 8 7 6 5 7 6 5 5 5 3 5 5 2 1 6 4 6 13 15 14 13 13 11
14 10 11 16 15 14 13 12 13 12 12 12 11 11 11 11 10 8 8 8 8 9 8 7 6 6 5 4 3 2 2 2 3 4 5 4 8 13 14 14 13 12 11
11 9 8 10 14 16 14 14 14 14 12 12 11 10 10 10 11 11 8 8 8 8 8 9 8 6 6 5 3 3 3 3 1 0 6 5 11 14 13 14 13 12 11
9 7 6 5 7 6 8 14 13 13 13 13 12 12 11 10 10 11 10 8 9 8 7 8 9 8 6 6 6 5 5 4 3 2 4 4 12 14 14 13 14 12 11
5 2 4 6 7 8 6 10 13 15 13 12 12 13 10 5 4 7 9 10 9 9 8 8 9 9 8 8 8 6 6 2 1 2 3 11 12 14 14 14 14 13 11
5 6 8 14 11 8 9 7 6 6 5 5 5 4 4 5 5 5 5 12 10 9 7 6 6 7 6 3 3 7 2 3 1 1 2 12 14 14 15 15 15 14 13
2 2 1 8 10 9 6 5 4 2 3 3 6 5 5 4 4 2 1 1 2 7 2 4 2 2 4 3 3 3 4 3 2 2 5 13 14 13 13 13 14 15 14
11 10 8 6 6 13 10 5 3 2 3 3 4 5 4 3 4 4 2 3 3 3 4 4 3 2 2 2 3 5 5 4 3 3 3 6 8 12 14 16 16 16 15
10 8 11 10 6 10 11 3 2 4 4 4 4 5 4 4 4 3 4 4 3 3 4 3 3 3 3 3 2 3 6 6 5 4 3 12 17 19 16 17 19 18 17
12 6 11 12 11 9 8 7 5 4 4 3 4 4 6 4 4 4 4 4 4 3 3 3 3 4 3 2 3 4 5 6 5 6 5 7 19 19 17 18 18 18 19
5 6 9 11 7 10 7 10 4 5 5 4 4 5 5 5 5 5 4 3 3 3 3 1 2 2 3 3 4 4 4 7 5 5 6 5 7 17 19 18 16 17 18
5 8 6 4 0 6 5 4 3 4 4 3 4 4 6 6 6 4 4 4 4 4 4 3 3 3 4 3 2 4 4 3 5 5 4 5 5 6 14 17 17 17 17
5 8 7 3 3 6 6 4 4 3 2 3 3 3 3 4 5 4 4 4 4 3 3 3 3 4 2 3 2 4 4 4 5 4 6 6 7 7 5 10 16 16 17
5 4 7 5 6 6 5 4 4 3 2 1 2 3 4 3 5 4 4 4 4 3 3 3 5 3 4 3 2 3 3 4 4 4 5 4 5 6 6 8 6 8 14
5 7 6 5 3 4 3 1 3 4 3 1 1 2 4 4 5 5 4 5 5 4 5 5 3 5 2 1 0 3 3 5 5 4 4 4 1 2 4 4 4 3 2
4 5 6 7 6 3 2 2 3 2 2 1 2 3 3 4 4 4 4 4 4 3 3 3 3 2 1 3 3 2 3 4 3 5 4 3 3 2 4 4 0 4 4
3 4 5 6 7 5 4 4 4 3 3 3 2 1 2 1 4 2 3 2 4 3 2 0 2 4 2 1 3 4 1 3 2 4 7 5 4 3 5 5 4 5 3
5 4 4 5 6 5 6 5 5 3 3 2 1 2 1 3 3 2 4 4 3 2 2 0 0 1 2 3 1 3 1 3 2 1 3 4 5 5 3 3 4 4 2
5 5 5 4 5 6 6 5 3 3 3 3 2 2 2 3 1 4 4 4 4 2 2 2 1 2 2 2 3 2 2 2 1 2 2 2 4 4 4 4 6 5 5
5 4 5 6 5 6 6 6 6 7 5 3 2 2 1 3 3 3 4 4 3 3 3 3 3 3 2 2 2 4 3 3 3 3 3 3 4 3 5 5 6 5 4
Wind_Direction
159 156 150 146 145 146 140 135 129 122 112 105 101 96 96 99 103 102 97 98 102 105 106 111 114 117 113 116 116 116 118 121 124 126 120 117 116 119 113 112 112 111 112
135 149 148 150 150 148 146 139 135 128 124 116 108 103 101 100 100 104 103 102 107 107 100 115 114 121 115 119 119 121 120 125 124 122 119 111 111 134 119 116 120 113 117
133 144 149 151 154 149 148 142 141 138 133 126 121 115 113 109 105 103 105 106 112 116 112 114 116 121 120 122 126 127 123 124 123 126 115 96 103 115 117 122 117 110 118
137 135 144 153 152 148 151 150 151 143 136 134 128 123 124 122 120 116 113 109 110 117 121 123 122 121 123 128 130 132 131 137 136 131 126 134 121 123 124 127 129 119 117
136 129 149 149 150 152 157 155 154 153 144 141 136 135 136 135 130 127 120 117 111 119 128 131 132 128 136 131 138 139 140 148 151 147 154 138 132 135 129 127 138 127 126
150 140 146 145 153 160 156 159 159 157 151 144 143 142 143 139 136 136 141 141 136 120 126 135 135 139 148 141 151 147 152 166 157 179 168 160 150 147 139 140 136 134 136
150 150 149 150 153 153 151 156 162 162 156 152 148 148 150 147 146 146 148 147 148 143 135 135 146 150 158 165 174 168 155 151 110 29 128 153 162 157 148 140 142 141 140
141 151 156 152 153 154 157 152 157 162 162 161 157 155 155 155 158 159 153 150 149 152 159 159 154 162 176 189 195 227 205 183 80 72 138 157 186 160 155 149 150 154 149
136 145 150 160 162 161 165 163 161 162 164 161 162 164 164 162 162 159 164 159 156 158 160 160 165 172 186 208 220 256 273 290 91 0 173 163 188 164 165 162 158 158 159
143 151 160 180 158 161 167 168 168 168 168 169 169 170 170 172 172 168 164 172 168 163 157 162 168 178 193 215 220 236 271 282 353 7 139 176 187 173 171 170 168 166 169
153 138 168 183 178 161 170 180 177 176 177 183 183 178 172 163 185 197 172 182 179 168 161 162 168 178 196 213 231 231 250 259 266 301 191 187 184 184 181 181 175 175 181
57 53 27 9 317 177 177 190 181 184 176 174 178 188 159 177 171 177 195 190 181 178 171 176 165 166 180 194 248 239 208 252 266 232 196 193 192 191 186 185 183 182 185
101 297 49 20 351 289 185 175 186 164 171 181 188 180 183 158 140 128 119 97 148 185 178 182 166 114 148 147 254 264 233 200 214 257 215 195 192 199 193 198 197 193 192
171 191 142 61 36 335 309 187 124 175 175 176 191 188 176 162 168 185 182 191 170 172 156 153 154 165 166 197 238 247 245 206 184 188 181 194 236 213 202 199 205 203 202
139 233 80 104 68 319 300 232 165 210 186 172 201 181 174 163 170 169 184 165 164 161 165 173 167 159 223 206 238 275 237 222 208 201 207 205 217 217 211 204 207 208 211
174 204 129 147 142 219 231 227 203 200 258 164 219 214 193 162 166 165 166 178 181 179 162 157 181 181 225 239 261 243 248 243 204 218 212 217 220 209 213 213 212 210 214
194 136 145 185 180 207 208 222 194 186 200 216 203 214 189 161 170 160 163 184 202 182 157 225 277 262 211 202 235 244 251 249 245 206 224 215 216 215 209 217 217 213 220
169 137 176 194 195 186 158 157 161 185 185 212 176 196 169 173 157 166 171 203 192 181 193 205 219 259 216 216 233 257 251 243 261 230 200 196 212 216 215 215 217 219 218
163 146 173 174 174 103 84 97 75 87 179 190 159 156 146 158 158 187 197 232 222 204 203 219 244 227 245 238 260 250 238 238 231 241 214 202 207 204 213 217 221 222 224
145 143 142 169 153 112 105 96 90 73 61 99 148 201 185 199 185 203 218 228 223 215 203 191 230 210 239 218 277 275 257 255 253 240 244 210 222 211 210 217 221 227 220
142 141 133 147 143 127 120 122 108 124 122 94 269 227 196 222 202 208 224 232 224 214 219 219 194 213 262 195 94 329 298 247 250 241 228 240 117 229 271 251 213 189 252
160 123 145 168 167 163 154 178 125 143 110 140 146 260 237 241 247 230 228 219 178 190 215 205 183 165 204 173 143 105 321 328 344 3 6 50 87 73 83 60 216 95 108
176 177 184 161 154 175 172 110 72 53 47 29 301 182 255 228 254 205 231 217 177 152 161 132 148 178 194 338 199 151 78 241 10 3 42 50 62 92 107 78 58 79 91
198 197 208 163 156 148 144 123 140 146 133 201 240 317 148 114 135 138 114 115 94 101 117 160 141 167 142 225 350 229 198 146 155 97 28 36 33 58 58 108 83 65 94
153 183 195 194 158 147 148 142 129 125 141 147 134 104 61 53 94 98 91 84 101 100 114 114 114 159 176 162 195 189 210 201 179 132 120 96 43 14 29 63 81 66 52
148 158 169 190 172 155 160 176 161 144 138 127 117 94 152 68 25 5 105 115 99 79 92 98 111 120 146 188 216 196 183 162 173 156 126 111 100 24 31 27 71 59 46